Wind_Speed
36 35 35 35 33 33 34 34 34 32 30 27 27 27 27 26 26 25 24 24 23 22 22 21 22 22 21 21 22 22 22 22 23 23 24 25 27 29 31 33 34 35 36 37
37 36 37 37 35 35 35 35 35 34 31 29 29 29 28 27 27 26 26 26 25 24 24 23 23 23 23 22 23 23 23 24 25 25 25 26 28 29 32 33 35 36 36 36
38 37 38 37 34 35 36 35 35 34 31 30 30 29 29 29 28 28 27 27 26 26 26 25 25 25 25 25 25 25 25 25 25 25 25 26 28 30 32 34 35 36 36 37
40 39 40 35 33 35 35 33 33 33 31 30 30 30 30 29 28 28 28 28 28 27 27 27 27 27 27 27 28 28 28 28 28 28 28 28 29 30 31 32 33 34 35 37
41 41 40 34 33 33 33 32 31 32 31 30 31 31 30 29 29 28 28 28 28 28 28 28 28 28 29 28 29 29 30 30 30 30 29 29 29 29 30 32 34 36 36 37
40 41 41 35 34 33 33 32 30 31 31 31 31 32 31 30 30 30 30 30 30 30 29 29 29 29 29 29 30 30 31 31 31 31 31 31 31 31 32 33 35 37 38 39
38 40 40 37 36 35 35 33 31 32 32 32 31 32 32 32 32 32 32 31 31 31 31 30 30 30 30 30 30 31 32 33 33 32 33 33 33 33 34 35 36 37 39 40
37 39 38 36 36 36 35 33 33 33 34 33 33 33 33 33 33 33 33 33 33 32 32 32 32 32 32 32 32 32 33 33 34 34 35 35 35 35 36 37 38 39 39 40
38 38 37 36 36 36 36 34 34 34 35 35 35 35 34 34 33 34 34 34 34 34 33 33 33 33 33 33 33 33 34 34 35 35 36 37 37 37 37 37 38 39 40 40
37 37 36 37 36 36 35 35 36 36 36 36 36 36 35 35 35 35 35 35 35 34 34 35 34 34 33 33 34 34 34 34 35 36 37 37 38 38 38 38 38 38 39 40
36 35 36 36 36 36 36 37 37 37 37 36 36 36 36 36 36 35 35 35 35 35 35 35 35 35 35 35 35 35 35 35 36 36 37 37 38 38 38 38 39 40 41 41
33 32 35 34 34 34 34 35 36 36 36 36 36 36 36 36 35 35 35 35 35 36 35 35 35 35 35 35 35 35 36 37 37 37 38 38 38 38 38 39 40 41 42 42
32 32 32 32 32 32 33 34 35 35 35 36 35 35 35 35 35 35 35 35 35 35 35 35 35 35 36 36 36 36 37 37 38 38 39 39 39 39 39 40 41 41 41 41
32 31 31 30 31 31 32 32 32 33 33 33 34 34 34 34 34 34 35 35 35 35 35 35 36 36 36 36 37 37 37 37 38 38 39 39 39 40 40 40 40 40 40 40
30 30 30 30 30 30 31 31 31 31 32 32 32 32 33 33 33 34 34 34 34 35 35 35 36 36 36 37 37 37 37 38 38 38 39 39 39 39 40 40 40 40 40 40
28 29 29 29 28 29 29 30 31 32 32 32 32 32 33 33 33 33 34 34 34 35 35 35 36 36 37 37 37 37 38 38 38 38 38 39 39 39 39 40 40 40 40 40
27 28 28 28 28 29 29 29 30 30 30 30 31 32 32 32 32 33 34 34 35 35 35 36 36 36 37 37 38 38 38 39 39 39 39 39 40 40 39 39 39 39 40 41
26 25 25 26 27 27 28 28 29 29 29 29 29 30 30 31 31 32 33 34 34 35 35 36 36 37 37 37 38 39 39 39 40 40 40 40 40 40 40 40 40 40 40 40
25 24 24 25 26 27 27 28 28 28 28 29 29 29 30 31 32 33 33 34 35 35 36 37 37 37 37 38 39 39 39 39 40 40 40 40 40 40 40 41 41 41 41 41
25 25 25 25 26 26 27 28 29 29 30 30 30 31 32 33 34 35 35 36 36 36 37 37 38 38 38 39 39 39 39 39 40 40 40 40 41 41 41 42 41 41 41 41
24 25 25 26 26 28 28 29 30 31 31 31 32 33 34 34 35 36 36 36 37 37 37 37 38 38 39 39 39 39 39 39 39 39 40 41 41 41 41 41 41 40 40 39
24 25 25 26 26 28 29 30 31 31 32 32 32 33 33 34 35 36 36 36 36 37 37 37 38 38 38 38 38 38 38 38 39 39 40 40 40 40 40 40 39 38 38 37
24 24 24 26 27 28 28 29 30 31 32 32 33 33 34 34 35 36 36 36 36 37 37 38 38 38 38 38 37 37 37 37 37 38 38 38 38 38 37 37 36 35 34 34
23 24 25 26 27 28 28 29 30 31 32 32 33 33 34 34 35 35 35 35 36 36 37 37 37 37 36 36 35 35 35 35 35 35 35 35 35 35 34 34 33 32 32 32
23 24 25 26 26 27 28 29 30 30 31 31 31 32 32 32 32 32 32 33 34 34 35 35 35 35 34 34 34 34 34 33 33 33 32 32 32 32 31 31 30 29 29 28
24 25 25 25 26 26 27 27 28 28 29 30 30 30 30 30 30 30 31 31 32 32 32 33 33 32 32 32 32 32 32 32 31 31 30 30 30 29 28 28 27 27 26 25
24 24 25 25 25 26 27 27 27 27 28 28 28 29 30 30 30 30 31 31 31 31 31 31 30 30 30 30 30 29 29 29 29 29 29 28 27 26 26 25 24 23 23 23
Wind_Direction
269 270 271 271 271 270 270 272 274 276 277 278 277 278 278 276 275 275 277 278 278 278 279 278 276 276 277 276 273 267 264 263 261 260 258 256 253 250 250 251 250 249 249 251
268 269 269 269 270 270 269 271 272 273 273 275 276 276 275 275 272 272 274 276 277 274 275 275 275 274 274 275 275 271 266 265 263 262 264 261 257 254 253 254 254 252 252 252
268 268 267 267 269 270 270 269 270 271 273 272 272 273 274 273 271 271 272 273 275 274 272 272 273 272 272 274 274 272 270 269 267 267 266 264 262 259 257 255 256 255 255 255
269 269 268 269 268 269 270 269 269 269 269 268 269 270 271 271 271 271 272 272 272 272 271 270 270 271 271 273 272 271 271 272 271 270 268 266 265 264 260 258 257 257 257 257
269 269 269 267 269 270 270 268 268 268 267 267 267 266 268 270 270 271 272 272 273 273 272 269 270 271 271 271 272 271 271 271 271 271 270 269 269 267 264 261 261 260 260 261
269 269 268 268 268 270 270 267 267 268 267 268 267 265 266 267 268 270 271 272 272 273 272 270 270 271 272 273 273 272 272 272 271 271 271 271 270 268 268 266 265 265 264 266
267 268 268 268 267 269 269 269 268 267 266 268 268 266 265 265 267 270 272 273 273 273 272 271 271 271 272 272 273 273 272 272 271 271 271 272 271 270 270 269 268 268 269 269
266 266 266 266 267 267 268 267 266 266 265 266 266 266 265 266 268 269 271 272 273 272 272 271 272 272 272 271 271 272 272 272 272 272 272 272 272 271 271 270 270 270 271 272
266 266 266 265 266 267 266 266 266 266 265 265 265 266 266 266 268 269 270 270 271 272 272 272 272 272 272 272 272 272 272 273 273 273 274 274 274 273 273 273 273 272 272 272
266 264 263 263 264 266 266 265 265 265 266 267 266 265 266 267 267 268 269 269 270 271 271 270 270 270 271 272 272 272 273 273 273 274 274 274 274 275 275 275 275 274 274 273
266 264 262 263 263 264 264 264 264 264 266 267 267 266 266 266 266 267 267 268 270 271 273 272 270 270 271 272 272 273 273 274 274 275 275 275 275 276 276 276 276 276 275 275
267 265 265 263 262 263 263 263 264 264 265 266 266 266 267 267 266 267 268 268 269 270 271 271 271 271 272 272 272 272 273 274 275 275 276 276 275 276 276 277 277 277 277 277
267 267 267 265 263 263 262 262 262 263 265 265 266 266 267 267 268 268 268 268 268 269 269 270 271 271 272 273 273 273 274 275 275 276 276 276 276 276 277 277 278 278 278 278
268 268 267 265 265 263 262 263 264 264 265 264 264 266 266 266 267 267 267 267 268 268 269 269 271 272 273 273 273 274 275 275 276 276 276 276 276 277 278 278 278 278 278 278
268 268 267 265 265 263 261 261 263 265 266 265 264 264 265 265 266 267 266 266 267 268 269 270 272 273 274 275 275 275 275 276 276 277 277 277 278 278 279 279 279 278 278 278
266 266 266 267 266 264 262 262 262 264 265 264 264 263 264 265 266 266 267 267 269 270 271 272 273 274 275 275 275 276 276 277 277 277 277 278 279 280 280 279 279 279 279 279
268 267 266 265 265 264 263 263 264 264 265 265 264 265 264 265 266 267 268 269 271 272 272 273 274 275 275 275 276 277 277 277 277 277 278 278 279 279 279 280 280 280 280 280
270 269 266 264 263 264 265 265 266 267 267 267 266 265 265 266 268 270 271 271 272 273 273 274 275 275 276 276 276 277 278 278 279 279 279 280 280 280 281 281 281 281 281 281
269 269 267 265 264 264 265 266 267 268 269 268 268 267 267 268 270 271 273 274 274 275 275 276 276 277 278 278 278 279 279 280 280 280 281 281 281 282 282 283 283 282 281 282
270 270 269 268 268 267 266 267 268 269 269 269 269 269 269 270 272 273 275 276 276 277 277 277 278 278 279 279 280 281 281 281 281 281 281 281 282 282 283 283 283 282 282 282
272 272 271 271 271 270 269 269 269 270 270 271 270 270 271 272 273 274 275 275 276 276 277 278 278 279 279 280 281 281 281 281 280 280 281 282 282 283 283 283 282 282 282 283
274 274 275 274 273 272 272 272 271 271 272 272 272 272 273 274 274 275 276 276 276 276 277 278 280 280 281 281 281 281 281 281 281 281 282 282 283 283 283 283 282 281 282 281
277 277 276 276 275 275 274 274 274 274 273 273 274 274 275 276 276 276 277 277 277 277 278 279 280 280 280 280 280 280 281 281 282 282 282 282 282 283 283 283 282 281 280 280
280 280 280 280 279 278 277 276 276 276 275 275 275 276 276 277 277 277 277 277 278 278 278 278 278 278 278 278 278 279 280 281 281 282 283 283 283 283 283 282 281 280 279 279
282 282 282 283 282 281 280 279 279 278 277 277 278 278 278 279 279 279 279 279 279 279 279 278 278 278 277 277 277 278 278 279 279 281 282 284 285 284 283 282 280 279 279 278
286 285 284 283 283 283 283 282 282 281 281 281 281 280 280 281 280 281 281 282 282 281 281 279 278 278 277 277 277 277 278 278 279 280 281 283 285 285 285 283 281 279 277 276
288 287 287 285 284 284 285 285 284 284 283 283 282 281 281 281 281 283 283 283 283 283 282 281 280 279 277 277 277 278 278 277 278 279 281 283 284 283 284 283 280 278 276 274
Height
5627 5628 5627 5628 5629 5629 5628 5627 5627 5628 5628 5629 5628 5627 5626 5624 5624 5623 5622 5622 5621 5620 5619 5619 5618 5617 5617 5616 5615 5615 5615 5615 5616 5616 5616 5616 5616 5617 5619 5621 5622 5624 5626 5628
5616 5617 5616 5616 5618 5618 5618 5618 5618 5618 5620 5621 5620 5619 5618 5617 5616 5616 5615 5615 5614 5613 5613 5612 5612 5611 5611 5610 5609 5609 5609 5609 5609 5609 5609 5609 5609 5610 5611 5612 5613 5614 5616 5618
5604 5605 5604 5606 5609 5608 5608 5609 5609 5609 5612 5611 5611 5610 5609 5608 5608 5608 5608 5607 5607 5606 5605 5605 5605 5604 5604 5603 5603 5602 5602 5602 5601 5601 5601 5601 5601 5601 5602 5602 5603 5605 5606 5607
5592 5593 5592 5600 5599 5598 5598 5599 5600 5600 5601 5601 5601 5601 5600 5600 5600 5600 5599 5599 5599 5598 5598 5597 5597 5597 5597 5596 5596 5595 5594 5594 5593 5593 5593 5593 5593 5593 5593 5594 5594 5595 5596 5597
5580 5579 5581 5588 5588 5588 5587 5589 5590 5590 5591 5592 5591 5591 5592 5592 5591 5591 5591 5591 5590 5590 5589 5589 5589 5589 5588 5588 5587 5587 5586 5586 5585 5585 5584 5584 5584 5584 5584 5585 5585 5586 5586 5587
5569 5568 5571 5578 5578 5576 5577 5578 5581 5580 5581 5582 5582 5582 5584 5584 5583 5583 5582 5582 5582 5581 5581 5580 5580 5580 5580 5579 5579 5578 5578 5577 5576 5576 5576 5575 5575 5575 5575 5575 5575 5575 5576 5576
5558 5557 5560 5565 5566 5566 5567 5570 5571 5570 5571 5572 5572 5573 5574 5574 5574 5573 5573 5573 5572 5572 5572 5571 5571 5571 5570 5570 5569 5569 5568 5568 5567 5567 5566 5566 5566 5565 5565 5565 5565 5565 5565 5564
5547 5547 5552 5554 5554 5556 5557 5558 5559 5560 5561 5561 5562 5562 5563 5563 5563 5563 5563 5563 5563 5563 5562 5562 5561 5561 5560 5560 5559 5559 5559 5558 5558 5557 5556 5556 5555 5555 5554 5554 5553 5553 5552 5552
5537 5539 5541 5542 5542 5544 5545 5547 5548 5549 5550 5550 5551 5552 5552 5553 5553 5553 5553 5553 5553 5553 5552 5551 5551 5551 5550 5550 5549 5549 5548 5548 5547 5546 5546 5544 5544 5543 5542 5541 5541 5540 5540 5539
5524 5527 5529 5530 5531 5533 5534 5535 5536 5537 5539 5540 5540 5541 5541 5542 5543 5543 5543 5543 5543 5542 5542 5541 5541 5540 5540 5539 5539 5538 5538 5537 5536 5536 5535 5533 5532 5531 5530 5530 5529 5528 5528 5527
5513 5516 5517 5519 5520 5521 5523 5524 5525 5527 5527 5528 5529 5530 5530 5531 5532 5532 5532 5532 5532 5531 5531 5530 5530 5530 5529 5529 5528 5527 5527 5526 5525 5524 5523 5522 5521 5520 5519 5518 5517 5516 5516 5515
5503 5506 5506 5508 5509 5510 5511 5512 5514 5515 5516 5517 5518 5519 5519 5520 5520 5521 5521 5521 5521 5521 5520 5520 5519 5519 5518 5518 5517 5516 5515 5514 5514 5513 5512 5511 5510 5509 5507 5506 5505 5504 5502 5501
5494 5495 5495 5497 5498 5499 5500 5501 5502 5504 5505 5506 5507 5508 5508 5509 5509 5509 5509 5510 5510 5510 5509 5509 5508 5508 5507 5506 5505 5505 5504 5503 5502 5501 5500 5499 5498 5497 5497 5495 5493 5491 5489 5488
5484 5485 5485 5487 5488 5489 5489 5490 5492 5493 5494 5495 5496 5496 5497 5498 5498 5498 5498 5498 5498 5498 5498 5498 5497 5496 5496 5495 5494 5493 5492 5491 5490 5489 5488 5487 5486 5484 5483 5482 5481 5479 5477 5475
5475 5475 5476 5477 5478 5479 5480 5481 5482 5483 5483 5484 5485 5486 5486 5487 5487 5487 5487 5487 5487 5487 5487 5486 5486 5485 5484 5483 5482 5481 5480 5479 5478 5477 5475 5474 5473 5472 5470 5469 5468 5466 5465 5463
5466 5466 5467 5468 5469 5469 5470 5471 5472 5473 5474 5474 5475 5475 5476 5476 5476 5476 5476 5476 5476 5476 5476 5475 5474 5473 5472 5471 5471 5470 5469 5467 5466 5465 5463 5462 5461 5459 5458 5456 5455 5454 5452 5451
5458 5458 5459 5459 5460 5461 5462 5462 5463 5463 5464 5464 5465 5465 5465 5465 5465 5465 5465 5465 5465 5465 5464 5464 5463 5462 5461 5459 5458 5457 5456 5455 5454 5453 5452 5450 5449 5447 5446 5444 5443 5441 5440 5438
5449 5450 5450 5451 5451 5452 5453 5453 5454 5454 5454 5454 5455 5455 5455 5455 5455 5455 5455 5455 5454 5454 5453 5452 5451 5450 5449 5448 5446 5445 5444 5443 5441 5440 5439 5437 5436 5435 5433 5432 5430 5429 5427 5425
5441 5441 5442 5442 5443 5443 5444 5444 5444 5445 5445 5445 5445 5445 5445 5445 5445 5445 5444 5444 5443 5443 5442 5440 5439 5438 5437 5436 5434 5433 5432 5430 5429 5427 5426 5425 5423 5422 5420 5419 5417 5416 5414 5412
5433 5433 5433 5434 5434 5434 5435 5435 5435 5435 5435 5435 5435 5435 5435 5434 5434 5434 5433 5432 5431 5431 5430 5429 5427 5426 5425 5424 5422 5421 5419 5418 5416 5415 5414 5412 5411 5409 5407 5405 5404 5402 5400 5399
5425 5425 5425 5425 5425 5425 5426 5426 5426 5426 5425 5425 5425 5425 5424 5424 5423 5423 5422 5421 5420 5419 5418 5417 5415 5414 5413 5411 5410 5408 5407 5405 5404 5402 5401 5399 5398 5396 5394 5392 5390 5389 5387 5386
5417 5417 5417 5416 5416 5416 5416 5416 5416 5416 5415 5415 5414 5414 5414 5413 5412 5411 5410 5409 5408 5407 5406 5405 5403 5402 5400 5399 5397 5396 5394 5393 5391 5390 5388 5387 5385 5383 5381 5379 5378 5376 5375 5374
5409 5409 5408 5408 5407 5407 5406 5406 5406 5405 5405 5404 5404 5403 5402 5401 5400 5400 5399 5397 5396 5395 5394 5392 5391 5389 5388 5386 5385 5384 5382 5381 5379 5378 5376 5374 5372 5371 5369 5367 5366 5364 5363 5362
5402 5401 5400 5399 5398 5398 5397 5396 5396 5395 5394 5394 5393 5392 5391 5390 5389 5387 5386 5385 5384 5383 5381 5380 5378 5377 5376 5375 5373 5372 5371 5369 5368 5366 5364 5362 5361 5359 5357 5356 5354 5353 5352 5351
5394 5393 5392 5391 5390 5389 5388 5387 5386 5385 5384 5383 5382 5381 5379 5378 5377 5376 5374 5373 5372 5370 5369 5368 5366 5365 5364 5363 5362 5361 5359 5358 5357 5355 5354 5352 5350 5348 5346 5345 5343 5342 5342 5341
5386 5385 5383 5382 5381 5380 5378 5377 5376 5375 5374 5372 5371 5370 5369 5367 5366 5365 5364 5362 5361 5359 5357 5356 5355 5353 5352 5351 5350 5349 5348 5347 5346 5345 5343 5342 5340 5338 5336 5335 5334 5333 5332 5332
5378 5377 5375 5374 5372 5371 5369 5368 5367 5365 5364 5362 5361 5360 5358 5357 5356 5354 5353 5351 5350 5348 5346 5345 5343 5342 5341 5340 5339 5338 5337 5337 5336 5335 5334 5332 5331 5329 5328 5326 5325 5324 5324 5323